Vorticity
5 5 6 7 7 6 6 5 5 5 5 6 5 5 4 5 5 4 4 5 5 5 4 5 5 5 6 6 6 6 6 6 6 5 5 5 5 5 4 4 4 4 4
6 5 6 8 8 7 6 6 5 4 6 6 6 5 5 5 5 5 5 5 4 4 5 5 5 5 5 6 6 6 6 6 5 5 5 5 5 4 5 5 4 4 4
7 6 6 7 8 7 7 6 5 6 5 6 6 6 5 5 6 5 6 5 5 5 5 4 4 5 5 6 6 6 6 6 5 5 5 4 5 5 4 4 5 5 5
9 7 6 8 7 7 7 6 7 6 6 5 6 6 6 6 6 6 6 5 5 4 4 4 5 5 6 6 7 6 6 6 5 5 4 5 5 5 5 5 5 5 5
9 8 7 7 9 8 8 7 7 6 6 6 5 6 5 6 6 6 6 5 6 5 5 5 4 5 6 7 7 7 6 6 5 4 4 4 5 5 5 6 5 5 5
10 9 7 8 8 8 8 6 6 6 7 6 4 6 7 7 5 5 6 6 6 5 5 5 5 6 6 6 6 6 6 4 4 4 5 5 5 6 6 5 5 5 5
8 9 8 8 8 9 9 7 6 6 6 7 9 6 5 5 6 6 6 5 5 5 5 4 5 6 7 6 6 6 5 4 4 5 5 6 6 5 5 5 5 5 6
5 9 9 9 8 8 7 7 7 7 6 6 6 6 6 6 6 7 7 6 5 5 4 4 5 6 7 8 6 5 4 4 5 6 7 6 5 5 5 5 6 7 9
-12 5 9 9 9 9 8 9 9 8 7 8 8 6 9 6 7 6 6 6 5 4 4 5 8 6 5 6 5 4 4 5 6 6 5 5 5 6 7 9 9 7 7
65 -2 9 9 9 9 8 7 9 7 8 7 7 6 6 5 5 8 7 5 5 4 7 5 -2 9 5 8 4 3 5 6 6 5 6 6 7 9 10 9 9 9 10
23 -11 1 8 7 7 7 7 8 8 7 7 8 7 5 4 6 7 7 6 6 6 0 1 -0 3 8 4 3 4 7 5 6 6 6 8 10 10 11 9 10 12 12
64 10 -2 1 9 9 8 8 8 8 8 8 7 8 8 9 6 8 6 6 4 0 2 -4 16 6 4 4 5 6 6 6 7 9 10 11 10 11 8 10 10 14 18
50 -5 15 7 7 7 9 8 8 8 8 8 8 8 8 8 10 8 7 1 -6 1 4 15 8 5 5 6 7 6 7 9 10 10 11 8 10 11 14 13 15 13 17
36 26 5 3 8 9 10 9 8 8 9 9 10 11 9 9 8 6 -0 -2 0 22 19 7 4 5 6 5 5 7 9 10 9 9 10 10 11 13 15 12 11 13 11
9 29 12 5 5 7 6 8 10 11 10 12 11 12 10 7 3 -1 0 0 18 7 6 5 6 6 6 6 9 10 11 9 10 10 9 11 12 11 11 10 11 6 4
11 21 9 5 7 10 18 11 8 9 12 8 4 3 5 -6 2 -2 11 29 10 6 6 5 6 4 6 10 11 8 8 8 9 10 12 12 13 12 11 12 11 10 11
4 4 4 4 9 -4 4 -2 -1 4 23 -12 9 13 1 1 9 32 20 7 6 6 7 6 5 6 10 10 10 8 10 11 11 11 10 11 12 11 9 8 7 6 7
26 21 11 11 7 -9 3 -10 3 2 -6 4 19 9 14 13 27 6 8 6 5 6 5 5 7 11 11 10 10 10 12 10 10 10 12 13 13 7 6 6 6 9 9
-3 9 3 -4 -17 6 12 14 10 20 9 26 19 2 32 9 9 7 6 6 5 5 5 7 11 11 10 10 9 11 10 11 11 12 10 11 8 6 5 6 9 10 11
8 6 -4 -6 4 5 6 -1 16 8 13 28 35 16 8 7 5 6 5 5 5 6 7 10 10 9 9 10 9 9 12 10 11 11 14 12 8 8 7 8 8 9 10
11 -14 -2 5 12 10 4 21 4 29 11 8 8 7 5 5 6 5 5 6 6 7 9 12 11 11 9 11 11 9 10 10 13 12 11 9 7 6 7 6 9 11 13
-6 4 9 12 5 8 11 2 31 7 10 7 6 5 5 6 6 6 6 6 8 11 13 10 10 9 10 11 12 11 10 11 11 10 11 12 8 8 7 8 10 13 14
16 16 15 11 4 7 16 19 8 7 7 6 6 7 6 5 5 6 6 7 10 12 9 8 8 12 12 10 11 11 9 8 10 10 9 9 7 7 9 10 13 11 11
14 5 5 -1 12 17 12 2 6 8 6 6 5 4 4 5 5 6 7 10 12 11 9 10 12 11 11 11 10 10 8 8 10 12 9 8 8 6 12 13 12 10 10
5 2 6 20 23 7 6 4 6 7 5 4 4 3 5 6 6 7 12 14 12 10 10 11 11 10 10 10 10 10 6 8 9 11 9 11 9 10 10 15 12 11 12
5 17 28 18 7 7 10 8 5 6 4 3 4 5 5 6 7 12 14 11 9 10 11 9 8 9 12 11 9 9 8 8 10 10 9 10 8 12 10 9 13 13 12
Height
3125 3127 3130 3133 3136 3139 3142 3144 3146 3148 3149 3150 3152 3152 3151 3155 3156 3156 3157 3158 3158 3158 3158 3158 3158 3157 3156 3155 3154 3153 3151 3150 3149 3147 3146 3145 3143 3142 3140 3139 3138 3136 3134
3121 3123 3127 3130 3132 3135 3137 3141 3143 3144 3147 3148 3149 3150 3150 3153 3154 3155 3155 3156 3156 3156 3156 3156 3156 3155 3154 3153 3152 3150 3149 3148 3146 3145 3143 3142 3140 3138 3137 3134 3133 3131 3129
3117 3119 3122 3125 3128 3131 3134 3137 3140 3142 3143 3146 3147 3148 3148 3150 3153 3152 3154 3154 3154 3154 3154 3153 3152 3152 3151 3150 3149 3147 3146 3144 3143 3142 3140 3138 3136 3134 3132 3129 3127 3125 3123
3111 3115 3118 3121 3124 3126 3129 3132 3135 3139 3141 3142 3144 3145 3146 3147 3150 3151 3152 3151 3151 3151 3151 3150 3150 3149 3148 3147 3146 3144 3143 3142 3140 3138 3137 3134 3132 3129 3126 3123 3120 3118 3115
3106 3109 3113 3116 3120 3123 3125 3128 3131 3134 3137 3139 3140 3142 3144 3144 3145 3147 3148 3148 3149 3149 3148 3148 3147 3146 3145 3143 3142 3141 3140 3138 3136 3134 3131 3129 3126 3123 3120 3117 3114 3111 3108
3101 3104 3108 3112 3115 3118 3120 3124 3127 3129 3132 3134 3136 3138 3139 3141 3141 3142 3143 3144 3145 3145 3144 3144 3143 3142 3141 3139 3138 3136 3134 3132 3130 3128 3125 3122 3118 3115 3112 3109 3105 3102 3098
3092 3097 3102 3106 3110 3114 3117 3119 3123 3126 3127 3131 3133 3134 3135 3136 3138 3139 3140 3140 3141 3141 3141 3140 3139 3138 3136 3135 3134 3131 3129 3127 3124 3121 3117 3115 3111 3108 3104 3100 3095 3090 3086
3086 3093 3096 3101 3105 3109 3112 3114 3118 3121 3124 3125 3128 3130 3132 3134 3134 3135 3137 3137 3138 3137 3137 3136 3135 3134 3133 3133 3131 3127 3124 3121 3118 3114 3110 3107 3103 3099 3094 3088 3083 3079 3075
3072 3083 3092 3096 3101 3105 3108 3110 3114 3117 3120 3122 3124 3126 3127 3129 3131 3131 3131 3133 3133 3133 3132 3132 3132 3130 3128 3127 3124 3121 3118 3115 3110 3107 3102 3097 3093 3088 3083 3079 3074 3068 3063
3064 3075 3086 3090 3096 3100 3103 3106 3110 3112 3116 3120 3120 3121 3123 3125 3125 3127 3127 3128 3129 3129 3129 3127 3126 3126 3122 3119 3116 3114 3110 3106 3101 3098 3094 3089 3083 3078 3072 3067 3062 3056 3050
3063 3068 3074 3085 3091 3096 3099 3103 3106 3109 3112 3116 3118 3118 3119 3120 3121 3123 3123 3124 3125 3124 3122 3120 3120 3117 3115 3112 3109 3107 3102 3099 3094 3089 3083 3077 3073 3068 3062 3056 3049 3043 3038
3056 3062 3067 3074 3083 3091 3096 3100 3104 3106 3109 3112 3114 3115 3116 3117 3117 3119 3119 3120 3120 3118 3116 3114 3114 3110 3109 3106 3103 3101 3096 3091 3086 3081 3075 3070 3064 3058 3052 3045 3039 3032 3027
3050 3056 3062 3073 3082 3086 3092 3096 3099 3102 3105 3108 3109 3110 3111 3112 3113 3114 3115 3116 3114 3113 3110 3107 3106 3104 3102 3099 3096 3093 3088 3082 3077 3070 3065 3060 3054 3048 3043 3037 3030 3024 3018
3047 3056 3061 3069 3075 3080 3089 3091 3094 3097 3101 3103 3106 3108 3109 3109 3109 3110 3110 3109 3108 3107 3104 3103 3100 3099 3096 3093 3088 3084 3078 3072 3066 3060 3055 3051 3046 3040 3035 3029 3024 3018 3013
3041 3050 3058 3066 3069 3076 3082 3086 3091 3093 3096 3100 3102 3104 3104 3104 3104 3104 3103 3103 3102 3101 3098 3097 3093 3091 3089 3084 3079 3074 3068 3063 3057 3052 3046 3042 3036 3031 3026 3023 3020 3013 3009
3038 3045 3055 3064 3068 3075 3078 3084 3088 3089 3093 3096 3098 3099 3100 3099 3097 3097 3097 3096 3096 3095 3094 3091 3089 3085 3081 3076 3072 3065 3060 3055 3050 3044 3039 3034 3030 3025 3020 3017 3013 3009 3003
3035 3044 3055 3061 3066 3071 3074 3078 3082 3084 3088 3092 3093 3093 3093 3092 3091 3090 3091 3092 3090 3089 3088 3085 3082 3078 3075 3068 3064 3058 3052 3047 3042 3038 3032 3028 3022 3020 3014 3011 3008 3003 2997
3036 3043 3051 3057 3062 3066 3069 3071 3075 3078 3082 3085 3085 3086 3086 3085 3085 3088 3087 3086 3086 3084 3081 3079 3074 3071 3066 3060 3056 3051 3046 3040 3035 3031 3027 3022 3017 3013 3007 3005 2999 2993 2986
3036 3041 3048 3053 3057 3060 3064 3068 3070 3072 3075 3076 3077 3078 3079 3081 3083 3084 3082 3082 3080 3077 3073 3071 3068 3061 3055 3051 3047 3042 3037 3034 3027 3023 3018 3015 3012 3008 3001 2996 2989 2983 2979
3035 3039 3045 3049 3054 3057 3061 3063 3065 3069 3070 3071 3072 3073 3077 3079 3079 3080 3078 3076 3074 3071 3067 3062 3056 3053 3049 3045 3040 3037 3033 3027 3024 3020 3014 3008 3005 2998 2994 2987 2982 2980 2975
3032 3038 3043 3047 3051 3054 3056 3059 3062 3064 3067 3068 3072 3074 3076 3077 3075 3075 3072 3069 3067 3064 3058 3052 3048 3045 3042 3038 3034 3029 3025 3020 3017 3012 3009 3003 2999 2992 2986 2982 2978 2974 2968
3030 3035 3040 3044 3048 3051 3054 3057 3060 3063 3066 3067 3069 3071 3072 3072 3070 3068 3066 3064 3061 3056 3050 3046 3042 3038 3035 3031 3027 3022 3019 3013 3009 3007 3001 2999 2990 2986 2982 2977 2972 2967 2961
3030 3034 3039 3042 3046 3050 3053 3055 3059 3061 3065 3067 3069 3068 3067 3067 3066 3064 3061 3058 3053 3049 3045 3040 3037 3034 3029 3025 3021 3017 3013 3008 3000 2995 2993 2991 2986 2982 2977 2971 2965 2959 2954
3028 3033 3038 3043 3046 3048 3051 3054 3057 3061 3064 3065 3065 3063 3063 3061 3060 3057 3053 3048 3045 3041 3038 3034 3032 3028 3023 3020 3013 3010 3005 3001 2996 2991 2986 2984 2980 2976 2973 2965 2959 2953 2947
3028 3033 3038 3042 3044 3047 3051 3054 3057 3059 3061 3062 3061 3059 3057 3056 3054 3052 3048 3044 3040 3037 3033 3030 3027 3022 3018 3014 3009 3004 3001 2996 2992 2988 2983 2978 2974 2968 2965 2962 2955 2947 2941
3029 3033 3037 3040 3043 3046 3050 3053 3055 3057 3058 3058 3057 3055 3053 3051 3050 3046 3041 3039 3035 3031 3027 3023 3020 3016 3011 3009 3004 2997 2993 2990 2987 2983 2978 2972 2967 2961 2956 2954 2949 2942 2935